Rifle, CO

5:05 PM MST on December 04, 2016 (GMT -0700)
Garfield County Regional

Weather History for KRIL - August, 2013

Change the Weather History Date:

Tuesday, August 6, 2013

  Actual Average Record
Temperature  
Mean Temperature 68 °F 72 °F  
Max Temperature 83 °F 90 °F 98 °F (2001)
Min Temperature 53 °F 55 °F 35 °F (1962)
Degree Days  
Heating Degree Days 0 0  
Month to date heating degree days 0 0  
Since 1 June heating degree days 13 60  
Since 1 July heating degree days 0 1  
Cooling Degree Days 3 7  
Month to date cooling degree days 37 47  
Year to date cooling degree days 534 390  
Since 1 June cooling degree days 527 383  
Growing Degree Days 18 (Base 50)    
Moisture  
Dew Point 47 °F    
Average Humidity 55    
Maximum Humidity 77    
Minimum Humidity 33    
Precipitation  
Precipitation T in 0.05 in 0.56 in (2001)
Month to date precipitation 0.04 0.29  
Year to date precipitation 4.80 7.86  
Sea Level Pressure  
Sea Level Pressure 30.02 in    
Wind  
Wind Speed 6 mph (ESE)    
Max Wind Speed 24 mph    
Max Gust Speed 38 mph    
Visibility 9 miles    
Events Rain , Thunderstorm    
T = Trace of Precipitation, MM = Missing Value Source: NWS Daily Summary

Daily Weather History Graph

Daily Weather History Graph

Search for Another Location

Airport or City:

Trip Planner

Search our weather history database for the weather conditions in past years. The results will help you decide how hot, cold, wet, or windy it might be!

Date:

Astronomy

Aug. 06, 2013 Rise Set
Actual Time 6:15 AM MDT 8:17 PM MDT
Civil Twilight 5:45 AM MDT 8:47 PM MDT
Nautical Twilight 5:09 AM MDT 9:23 PM MDT
Astronomical Twilight 4:30 AM MDT 10:01 PM MDT
Moon 6:09 AM MDT (8/6) 7:54 PM MDT (8/6)
Length of Visible Light 15h 01m
Length of Day
14h 02m
Waning Crescent, 0% of the Moon is Illuminated
Aug 6
Waning Crescent
Aug 6
New
Aug 14
First Quarter
Aug 20
Full
Aug 28
Last Quarter

Hourly Weather History & Observations

Time (MDT) Temp. Dew Point Humidity Pressure Visibility Wind Dir Wind Speed Gust Speed Precip Events Conditions
12:53 AM 60.1 °F 48.9 °F 67% 29.98 in 10.0 mi Calm Calm - N/A   Clear
1:53 AM 57.0 °F 48.9 °F 74% 29.96 in 10.0 mi East 4.6 mph - N/A   Clear
2:53 AM 57.0 °F 48.9 °F 74% 29.96 in 10.0 mi East 3.5 mph - N/A   Clear
3:53 AM 57.0 °F 48.9 °F 74% 29.96 in 10.0 mi Calm Calm - N/A   Clear
4:53 AM 55.0 °F 48.9 °F 80% 29.97 in 10.0 mi SE 3.5 mph - N/A   Clear
5:53 AM 55.0 °F 48.9 °F 80% 30.17 in 10.0 mi Calm Calm - N/A   Clear
6:53 AM 55.0 °F 48.9 °F 80% 29.99 in 10.0 mi ESE 3.5 mph - N/A   Clear
7:53 AM 60.1 °F 51.1 °F 72% 30.00 in 10.0 mi Calm Calm - N/A   Clear
8:53 AM 64.0 °F 51.1 °F 63% 30.00 in 10.0 mi Calm Calm - N/A   Clear
9:53 AM 70.0 °F 51.1 °F 51% 29.99 in 10.0 mi Calm Calm - N/A   Clear
10:53 AM - - N/A% 30.16 in - North - - N/A   Unknown
11:53 AM 79.0 °F 51.1 °F 38% 29.94 in 10.0 mi Variable 3.5 mph - N/A   Clear
12:24 PM 80.6 °F 48.2 °F 32% 30.13 in 10.0 mi NW 5.8 mph - N/A Thunderstorm Clear
12:53 PM 78.1 °F 41.0 °F 27% 29.96 in 10.0 mi North 26.5 mph 38.0 mph N/A Thunderstorm Scattered Clouds
1:15 PM 73.4 °F 46.4 °F 38% 30.16 in 10.0 mi NNE 18.4 mph 25.3 mph 0.00 in Rain Light Rain
1:53 PM 75.9 °F 44.1 °F 32% 29.99 in 10.0 mi East 13.8 mph 26.5 mph 0.00 in   Mostly Cloudy
2:20 PM 75.2 °F 42.8 °F 31% 30.17 in 8.0 mi SE 19.6 mph 24.2 mph N/A   Overcast
2:46 PM 73.4 °F 44.6 °F 36% 30.18 in 5.0 mi SW 16.1 mph - N/A   Haze
2:53 PM 73.9 °F 46.0 °F 37% 30.00 in 2.5 mi SSW 12.7 mph - 0.00 in Rain Light Rain
3:08 PM 75.2 °F 44.6 °F 34% 30.14 in 10.0 mi SSE 16.1 mph 19.6 mph 0.00 in Rain Light Rain
3:53 PM 73.9 °F 48.0 °F 40% 29.98 in 9.0 mi ESE 12.7 mph - 0.00 in   Clear
4:53 PM 75.0 °F 48.0 °F 38% 29.98 in 10.0 mi North 4.6 mph - N/A   Partly Cloudy
5:53 PM 75.9 °F 45.0 °F 33% 29.97 in 10.0 mi East 3.5 mph - N/A   Scattered Clouds
6:53 PM 73.9 °F 46.0 °F 37% 29.97 in 10.0 mi ENE 11.5 mph - N/A   Partly Cloudy
7:53 PM 73.0 °F 46.0 °F 38% 29.96 in 10.0 mi SSE 13.8 mph - N/A   Clear
8:53 PM 70.0 °F 46.9 °F 44% 29.96 in 10.0 mi East 10.4 mph - N/A   Clear
9:53 PM 66.9 °F 46.9 °F 49% 29.96 in 10.0 mi East 3.5 mph - N/A   Clear
10:53 PM 63.0 °F 46.9 °F 56% 30.15 in 10.0 mi SSW 3.5 mph - N/A   Clear
11:53 PM 63.0 °F 46.0 °F 54% 29.96 in 10.0 mi Calm Calm - N/A   Clear